AGILA (62456 NORAD) Tracking and Keplerian Element Data

This shows tracking and keplerian element data for the satellite.

Feedback or suggestion? Click here.




ElementValue
Catalog62456
NameAGILA
Epoch Orbit36
Epoch Day31.71062204
Epoch Year2025
RAAN353.5947
Inclination10.253
Eccentricity0.7669777
Argument of Perigee190.6434
Mean Anonmoly130.8445
Mean Motion1.06018164
Decay Rate-1.98E-06
L11 62456U 24252C 25031.71062204 -.00000198 00000+0 00000+0 0 9998
L22 62456 10.2530 353.5947 7669777 190.6434 130.8445 1.06018164 369



Live tracking and technical data element details for AGILA (NORAD 62456). AGILA can be tracked NOW for your location showing map with azimuth and elevation plus other details from your city location.







IsCatalogInMostPopularTable: catalog: 62456, numindb: 10
Update: records affected: 1



GetName: 62456 AGILA

Hit Count: updated at: Sun, 18 May 2025 22:45:14 GMT